Regional Weather Roundup
Issued by NWS

Home | Current Version | Previous Version | Text Only | Print | Product List | Glossary Off
Versions: 1 2 3 4 5 6 7 8 9 10 11 12 13 14 15 16 17 18 19 20 21 22 23 24 25 26 27 28 29 30 31 32 33 34 35 36 37 38 39 40 41 42 43 44 45 46 47 48 49 50

000
ASUS43 KDTX 141210
RWRMI
MICHIGAN HOURLY REGIONAL WEATHER ROUNDUP
NATIONAL WEATHER SERVICE DETROIT/PONTIAC MI
700 AM EST SUN FEB 14 2016

NOTE: "FAIR" INDICATES FEW OR NO CLOUDS BELOW 12,000 FEET WITH NO
SIGNIFICANT WEATHER AND/OR OBSTRUCTION TO VISIBILITY.

MIZ047>049-052>055-059>063-066>070-074>076-081>083-141300-
SOUTHEAST LOWER MICHIGAN

CITY           SKY/WX    TMP DP  RH WIND       PRES   REMARKS
ADRIAN         CLOUDY     0  -5  79 CALM      30.44F
6HR MIN TEMP:  -1; 6HR MAX TEMP:   7;

ALMA           CLEAR      4   1  88 CALM      30.44S
ANN ARBOR      CLOUDY    -8 -13  78 CALM      30.44F
BAD AXE        CLOUDY    -7 -11  81 CALM      30.44S
CARO           CLOUDY   -15 -18  84 CALM      30.44F
DETROIT CITY   CLEAR      2  -4  76 CALM      30.47S
6HR MIN TEMP:   2; 6HR MAX TEMP:   7;

DETROIT        PTCLDY     2  -4  76 CALM      30.47F
6HR MIN TEMP:  -1; 6HR MAX TEMP:   6;

FLINT          CLOUDY    -2 -10  69 CALM      30.44F
6HR MIN TEMP:  -4; 6HR MAX TEMP:   2;

GROSSE ILE     CLOUDY     3   1  92 CALM      30.46F
HILLSDALE      PTCLDY    -2  -6  82 CALM      30.38F
6HR MIN TEMP:  -2; 6HR MAX TEMP:   9;

HOWELL         CLOUDY    -7 -11  82 CALM      30.42S

CITY           SKY/WX    TMP DP  RH WIND       PRES   REMARKS
JACKSON        PTCLDY    -3  -9  75 CALM      30.41F
6HR MIN TEMP:  -4; 6HR MAX TEMP:   4;

LAMBERTVILLE   CLOUDY     1  -3  86 CALM      30.46F
6HR MIN TEMP:   1; 6HR MAX TEMP:   8;

LANSING        CLOUDY     1  -4  79 CALM      30.43F
6HR MIN TEMP:   0; 6HR MAX TEMP:   6;

LAPEER         FAIR     -10 -13  83 CALM      30.44S
6HR MIN TEMP: -11; 6HR MAX TEMP:  -1;

MASON          CLOUDY    -6 -10  82 CALM      30.42S
MONROE         CLOUDY     1  -3  84 CALM      30.45F
6HR MIN TEMP:   1; 6HR MAX TEMP:   6;

MT. CLEMENS    CLOUDY     0  -4  84 W2        30.45S
6HR MIN TEMP:  -2; 6HR MAX TEMP:   5;

PONTIAC        CLOUDY    -4  -9  79 CALM      30.42S
6HR MIN TEMP:  -7; 6HR MAX TEMP:  -1;

PORT HOPE        N/A      8   0  69 SW7       30.42S WCI  -3
6HR MIN TEMP:   8; 6HR MAX TEMP:  12;

PORT HURON     CLOUDY    -8 -11  84 CALM      30.47S
TRI CITIES     CLOUDY     9   2  73 SW3       30.45S
6HR MIN TEMP:   8; 6HR MAX TEMP:  10;

MIDLAND        CLOUDY     6   2  80 CALM      30.44S
6HR MIN TEMP:   6; 6HR MAX TEMP:   9;

TROY           CLOUDY     5   1  84 CALM      30.47S
SAGINAW HB     CLOUDY     3   0  85 S5        30.45S WCI  -6
$$
MIZ043>046-050>051-056>058-064>065-071>073-077>080-141300-
SOUTHWEST LOWER MICHIGAN

CITY           SKY/WX    TMP DP  RH WIND       PRES   REMARKS
BATTLE CREEK   CLOUDY    -2  -7  79 CALM      30.41S
6HR MIN TEMP:  -3; 6HR MAX TEMP:   9;

BENTON HARBOR  CLOUDY     9   3  77 SE7       30.43S WCI  -2
6HR MIN TEMP:   9; 6HR MAX TEMP:  14;

BIG RAPIDS     CLOUDY    -1  -4  87 CALM      30.39S
6HR MIN TEMP:  -1; 6HR MAX TEMP:   3;

COLDWATER      CLOUDY    -3  -7  82 CALM      30.41S
6HR MIN TEMP:  -3; 6HR MAX TEMP:  12;

FREMONT        CLOUDY    10  -2  60 E3        30.40S
HOLLAND        CLOUDY     8  -1  66 E5        30.42S WCI   0
6HR MIN TEMP:   8; 6HR MAX TEMP:  12;

GRAND RAPIDS   CLOUDY     2  -3  80 S5        30.42S WCI  -8
6HR MIN TEMP:   1; 6HR MAX TEMP:   7;

IONIA          FAIR       1  -3  82 SE3       30.41S
6HR MIN TEMP:   1; 6HR MAX TEMP:   6;

KALAMAZOO      CLOUDY     1  -5  75 CALM      30.42S
6HR MIN TEMP:  -1; 6HR MAX TEMP:  12;

LUDINGTON      CLOUDY    12   3  67 SE6       30.40S WCI   3
6HR MIN TEMP:  12; 6HR MAX TEMP:  13;

MARSHALL       PTCLDY    -2  -6  82 CALM      30.41S
6HR MIN TEMP:  -3; 6HR MAX TEMP:   6;

MOUNT PLEASANT CLOUDY    10   4  76 CALM      30.42S
6HR MIN TEMP:   9; 6HR MAX TEMP:  11;

MUSKEGON       CLOUDY    12   0  58 SE10      30.42S WCI  -1
6HR MIN TEMP:  11; 6HR MAX TEMP:  13;

SOUTH HAVEN    CLOUDY     8   3  80 SE5       30.42S WCI  -1
$$
MIZ016>042-141300-
NORTHERN LOWER MICHIGAN

CITY           SKY/WX    TMP DP  RH WIND       PRES   REMARKS
ALPENA         CLOUDY   -10 -15  78 CALM      30.43F
6HR MIN TEMP: -10; 6HR MAX TEMP:   4; 6HR PCP: TRACE;

BEAVER ISLAND  LGT SNOW  11   9  89 SE8       30.39F WCI   0
6HR MIN TEMP:   9; 6HR MAX TEMP:  14;

BELLAIRE       CLOUDY    11   5  77 CALM      30.41F
6HR MIN TEMP:  10; 6HR MAX TEMP:  11;

CADILLAC       CLOUDY     3  -2  79 CALM      30.34F
CHARLEVOIX     LGT SNOW  10   7  87 SE6       30.41F WCI   0
FRANKFORT      CLOUDY    13   4  69 SE3       30.39F
GAYLORD        CLOUDY     4   0  83 CALM      30.34F
6HR MIN TEMP:   2; 6HR MAX TEMP:   5; 6HR PCP: TRACE;

GRAYLING       CLOUDY     3  -1  83 CALM      30.38S
6HR MIN TEMP:   1; 6HR MAX TEMP:   4;

HARBOR SPRINGS CLOUDY     0  -4  83 NE3       30.40F
HOUGHTON LAKE  CLOUDY     7   1  76 CALM      30.38S
6HR MIN TEMP:   7; 6HR MAX TEMP:   8;

MANISTEE       CLOUDY    10   1  67 SE6       30.40R WCI   1
OSCODA         CLOUDY    -8 -14  78 CALM      30.44S
6HR MIN TEMP: -11; 6HR MAX TEMP:  -5;

PELLSTON       CLOUDY    -5  -9  83 CALM      30.41F
6HR MIN TEMP: -10; 6HR MAX TEMP:  -2; 6HR PCP: TRACE;

ROGERS CITY    CLOUDY    -1  -5  82 S3        30.43F
TRAVERSE CITY  CLOUDY    12   3  67 SE5       30.39F WCI   4
6HR MIN TEMP:  11; 6HR MAX TEMP:  12;

$$
MIZ007>008-015-141300-
EASTERN UPPER MICHIGAN

CITY           SKY/WX    TMP DP  RH WIND       PRES   REMARKS
KINROSS        MOCLDY    -6  -9  84 E6        30.40F WCI -18
6HR MIN TEMP:  -8; 6HR MAX TEMP:  -2;

MACKINAC ISLAN FLURRIES   4   1  86 S5        30.40S WCI  -5
6HR MIN TEMP:   4; 6HR MAX TEMP:   8;

NEWBERRY       CLOUDY    -9 -11  88 SE3       30.36F
6HR MIN TEMP: -11; 6HR MAX TEMP:   2;

S. S. MARIE    CLOUDY    -6 -15  65 E6        30.41F WCI -19
6HR MIN TEMP:  -8; 6HR MAX TEMP:  -3;

MUNISING         N/A     -6 -11  79 S9        30.36F WCI -23
6HR MIN TEMP:  -7; 6HR MAX TEMP:   3;

$$
MIZ004>006-011>014-085-141300-
CENTRAL UPPER MICHIGAN

CITY           SKY/WX    TMP DP  RH WIND       PRES   REMARKS
MANISTIQUE     CLOUDY   -13 -17  82 CALM      30.38F
6HR MIN TEMP: -16; 6HR MAX TEMP:   1;

ESCANABA       CLOUDY   -15 -29  48 CALM      30.37F
6HR MIN TEMP: -15; 6HR MAX TEMP:  -8;

MENOMINEE      CLOUDY    -9 -15  77 CALM      30.37S
6HR MIN TEMP:  -9; 6HR MAX TEMP:  -6;

SAWYER-GWINN   CLEAR    -24 -29  76 CALM      30.28F
$$
MIZ001>003-009>011-084-141300-
WESTERN UPPER MICHIGAN

CITY           SKY/WX    TMP DP  RH WIND       PRES   REMARKS
IRON MOUNTAIN  CLOUDY   -20 -26  74 CALM      30.29F
6HR MIN TEMP: -21; 6HR MAX TEMP: -11;

HOUGHTON       CLOUDY    -2  -9  72 S3        30.26F
6HR MIN TEMP:  -6; 6HR MAX TEMP:   2; 6HR PCP: TRACE;

COPPER HARBOR    N/A      1  -6  72 SW7       30.30F WCI -12
6HR MIN TEMP:  -2; 6HR MAX TEMP:   7;

IRONWOOD       CLOUDY    -2 -17  50 CALM      30.18F
6HR MIN TEMP: -20; 6HR MAX TEMP:   0;

$$

ABBREVIATIONS USED IN REMARKS
   TC - TEMPERATURE IN CELSIUS
  WCI - WIND CHILL INDEX
   HX - HEAT INDEX
  VSB - VISIBILITY




USA.gov is the U.S. government's official web portal to all federal, state and local government web resources and services.